Theta_e
300 291 287 290 291 291 293 291 294 294 294 297 298 299 301 303 302 304 307 313 317 320 325 328 330 332 333 334 334 336 336 337 338 337 333 331 331 335 337 338 338 338 337 336
295 289 292 293 293 291 290 289 289 290 294 294 294 295 300 303 303 304 304 306 310 315 318 318 323 328 330 332 333 334 335 336 337 337 337 336 336 335 336 338 338 338 337 337
290 291 294 292 291 290 289 288 287 289 290 291 291 291 294 298 299 301 304 307 306 307 311 314 315 317 321 327 330 331 333 335 336 337 337 336 335 334 335 335 336 337 337 337
292 295 291 290 289 291 286 293 291 289 287 284 289 285 294 294 295 296 299 302 304 307 307 307 310 311 313 316 321 328 331 332 334 336 335 333 330 330 333 334 336 336 337 336
289 291 290 288 288 292 288 294 291 291 288 287 286 284 290 291 291 294 296 298 301 304 306 308 309 310 311 312 313 314 319 326 330 333 334 333 332 334 335 335 335 335 335 336
292 297 294 292 292 293 294 292 291 290 288 280 285 284 286 289 291 293 295 297 298 299 301 302 304 306 306 309 309 310 309 312 321 328 331 332 332 332 332 332 332 333 333 333
288 291 294 295 289 292 293 288 280 278 280 279 286 283 287 292 293 294 294 296 297 297 297 298 297 298 300 302 305 306 308 308 314 321 326 330 330 332 331 331 331 331 330 328
283 281 290 293 291 287 288 286 281 274 276 279 283 280 285 292 294 295 295 296 297 298 299 298 299 299 299 300 302 303 305 307 311 317 323 327 329 331 331 331 330 330 328 327
282 282 293 293 293 292 287 283 288 282 280 280 282 286 290 292 293 293 293 294 295 295 297 298 299 301 302 303 305 306 307 308 309 311 316 319 319 319 321 322 322 323 322 320
286 280 288 291 293 292 290 292 281 284 276 275 279 281 285 287 289 291 293 294 295 298 299 299 300 301 302 302 303 304 304 304 304 305 306 307 308 311 312 312 312 312 314 313
286 285 283 289 288 286 287 285 286 286 283 278 276 281 289 290 292 293 294 295 297 298 298 299 300 299 299 300 300 301 301 301 301 301 301 303 303 303 305 307 307 308 308 309
284 285 281 284 290 292 291 288 287 281 279 282 280 282 289 290 290 294 294 295 296 297 298 299 299 299 299 299 299 298 298 299 298 298 299 299 299 299 301 302 302 302 303 304
284 281 278 280 284 287 287 289 289 288 286 281 280 282 290 289 291 291 292 295 296 296 298 298 299 300 299 299 298 298 297 297 295 295 296 295 296 297 298 298 297 298 299 299
287 280 278 276 278 283 282 284 287 287 283 282 283 285 287 290 292 293 293 294 294 296 296 297 298 299 299 298 298 297 296 295 294 293 294 294 294 295 295 295 295 295 295 295
284 277 279 280 281 281 281 281 281 284 286 283 285 285 289 291 292 293 294 295 295 296 295 297 297 297 298 298 298 296 295 295 293 292 292 293 293 292 291 290 291 291 291 292
285 278 279 277 280 280 278 281 282 282 281 282 283 283 292 292 292 292 294 294 293 294 295 295 295 295 294 295 296 295 294 294 292 291 291 291 290 289 289 289 288 288 288 288
281 280 277 274 278 278 274 278 281 282 283 284 281 286 289 287 289 290 291 292 292 292 292 292 292 292 291 291 292 293 295 294 291 290 290 290 289 288 287 288 287 287 287 287
281 278 277 274 273 268 278 281 282 282 282 284 284 286 286 288 290 291 292 292 290 290 291 291 291 290 289 289 289 289 291 291 290 290 289 288 287 287 286 285 285 286 286 285
284 280 273 273 272 274 278 280 280 279 280 285 284 285 288 288 289 289 292 290 289 289 290 289 289 287 286 286 286 285 287 289 288 288 288 287 286 286 285 284 284 285 284 284
281 282 277 271 269 267 276 281 283 285 276 286 287 285 285 286 282 286 290 289 289 289 288 287 286 285 285 285 283 282 284 285 286 287 287 287 286 285 284 284 283 283 283 282
275 276 273 272 271 274 281 282 285 275 277 286 286 286 285 284 287 289 289 288 287 286 286 285 285 283 283 282 281 281 282 283 284 284 284 284 284 283 284 284 283 281 281 281
273 272 273 273 271 269 283 281 279 283 286 285 286 286 286 287 287 286 286 286 285 284 284 283 281 281 281 281 280 279 279 281 281 281 282 283 283 283 283 282 281 280 280 279
273 278 276 277 276 283 283 285 287 287 287 285 285 286 286 285 284 284 284 283 283 282 281 280 279 278 280 279 278 277 279 278 278 278 278 280 280 281 281 281 280 279 280 279
277 280 278 277 281 282 283 284 285 286 285 286 286 285 284 283 283 281 281 281 280 279 279 278 277 277 277 278 276 276 276 276 276 276 278 278 277 279 279 280 280 280 279 279
280 279 278 277 281 282 283 284 285 284 283 282 283 282 283 282 281 280 279 278 278 277 277 276 276 275 276 276 275 275 275 274 274 275 276 277 278 278 278 278 279 279 280 280
280 279 277 277 283 283 283 284 284 283 283 282 281 280 280 279 278 277 276 276 275 275 275 274 274 274 274 274 273 273 272 272 272 273 275 276 276 277 277 277 277 279 280 280
Wind_Speed
14 11 20 24 22 8 13 12 19 9 3 5 18 19 21 9 6 11 12 12 14 15 14 12 13 14 14 14 15 17 16 16 12 11 10 9 9 10 9 10 13 13 12 13
10 21 15 10 14 18 8 11 11 4 4 6 6 16 20 15 14 12 13 14 14 13 12 11 12 13 16 16 16 17 17 17 14 12 11 9 10 10 10 10 12 14 15 14
21 5 13 14 14 19 17 14 5 6 6 1 5 14 14 12 15 15 15 14 11 14 15 14 13 15 14 16 17 17 17 17 17 16 10 9 6 4 7 10 11 14 16 15
15 12 17 17 17 17 21 12 9 8 6 8 3 17 17 12 14 11 13 14 17 17 14 14 14 13 14 15 13 16 17 17 16 17 13 16 12 12 11 11 10 10 14 15
12 19 16 18 22 16 13 13 12 8 6 4 5 8 13 1 11 12 11 14 15 16 16 18 17 14 13 9 10 11 13 15 16 16 17 14 15 11 10 9 10 11 10 13
8 8 15 11 13 17 16 13 9 6 3 9 19 10 14 13 9 6 5 6 8 8 10 13 13 12 13 10 9 10 11 14 15 16 19 18 18 16 11 11 9 9 8 8
9 13 6 10 17 11 13 20 6 5 7 12 9 9 17 5 5 6 5 7 4 2 6 8 9 9 10 10 10 10 12 13 13 16 17 18 19 17 15 13 10 10 8 8
7 8 14 12 17 13 18 20 8 10 8 14 6 11 8 6 6 7 7 8 8 7 6 7 9 10 10 10 9 9 11 13 11 13 16 14 15 10 10 12 9 8 8 8
4 6 10 16 7 15 15 13 3 6 1 3 7 7 9 6 8 1 5 2 6 7 8 10 9 7 8 8 8 6 6 7 7 7 8 9 7 7 7 8 7 6 6 5
2 3 4 9 6 3 13 14 7 2 8 6 5 6 6 3 2 5 5 7 6 7 9 9 8 8 6 5 6 5 3 0 1 3 3 3 4 5 5 5 6 6 5 7
2 2 2 6 10 15 7 13 5 5 2 5 4 4 1 7 9 9 9 9 8 8 8 7 5 5 4 4 4 5 4 3 3 2 1 3 2 1 2 3 4 4 5 6
4 4 6 5 3 3 14 12 15 9 8 8 1 2 5 10 4 6 9 6 5 4 6 5 5 4 3 3 3 2 1 1 2 2 2 2 2 1 2 3 3 3 4 4
6 3 1 9 4 3 4 5 14 6 2 10 10 7 5 5 4 4 6 6 4 4 7 6 5 5 4 4 4 4 3 2 0 1 2 1 2 2 3 4 4 5 6 7
1 4 4 5 5 3 4 3 2 10 7 12 12 15 9 5 3 1 3 5 5 7 7 5 6 6 6 5 5 4 4 4 3 3 4 4 5 5 5 5 5 6 5 6
3 3 3 5 5 4 2 1 2 5 3 9 9 11 7 9 13 13 12 11 10 7 4 8 8 9 9 8 8 5 6 6 6 6 6 7 5 4 4 4 4 4 5 5
2 4 1 3 5 2 1 4 6 6 5 8 10 16 9 4 5 6 7 7 10 12 13 10 9 9 9 10 11 7 8 6 6 8 9 8 8 8 9 9 9 8 7 6
4 2 0 3 5 3 5 8 11 6 7 7 10 10 5 3 2 4 6 7 7 9 11 12 10 8 8 9 10 11 11 6 7 9 9 9 9 9 9 7 8 9 9 8
4 2 2 1 1 4 2 3 3 7 7 7 8 7 2 3 2 7 3 3 7 10 12 12 11 12 11 10 10 10 9 8 8 9 9 9 9 9 7 8 9 9 9 10
5 1 2 1 3 6 5 2 4 6 4 8 10 4 4 1 3 3 4 6 6 7 9 9 10 11 11 10 11 11 11 8 8 9 10 9 9 10 10 11 11 11 10 10
3 5 1 2 3 5 1 1 3 1 6 4 5 4 2 1 3 1 2 5 8 8 6 9 10 11 11 12 11 11 11 10 9 8 9 8 9 11 13 12 11 9 9 9
4 3 10 4 4 6 8 9 3 5 1 5 2 1 2 2 4 4 4 5 6 8 11 10 9 9 9 10 10 11 11 11 11 9 9 8 9 11 12 10 9 9 9 7
7 7 5 4 5 10 8 3 8 1 3 1 5 2 5 5 4 4 6 7 8 11 10 10 12 11 9 9 9 10 11 10 10 10 9 9 8 7 7 9 8 9 10 10
5 7 4 9 7 3 6 3 6 3 4 5 8 5 4 5 4 5 5 7 8 10 10 8 9 12 9 7 7 12 11 11 10 9 8 7 6 7 7 8 9 8 10 10
6 5 5 2 10 15 11 8 6 6 10 10 7 7 2 8 5 6 5 5 6 8 9 8 10 11 11 6 7 9 10 11 9 9 8 7 6 7 6 7 7 8 9 9
6 8 6 9 13 9 14 13 9 3 4 4 2 3 6 6 8 6 7 5 6 7 7 8 10 11 12 10 9 9 9 8 9 9 8 8 7 7 8 9 8 8 9 11
10 10 11 10 9 6 3 4 4 5 6 4 3 3 3 5 8 7 8 6 6 8 8 9 9 10 11 10 10 8 7 7 8 9 7 6 6 6 7 8 8 16 17 15
Wind_Direction
193 200 207 203 207 235 242 214 221 197 94 239 223 228 237 207 233 234 236 236 224 222 231 220 211 213 209 210 209 209 206 205 202 203 201 209 212 219 222 224 221 218 218 214
185 220 209 214 208 208 179 203 203 105 114 189 239 240 249 243 245 238 237 236 242 241 234 218 214 217 216 213 215 213 213 207 204 204 203 209 204 221 219 224 223 218 217 216
208 208 182 188 191 200 211 199 184 215 126 130 266 251 247 244 235 240 240 247 251 250 250 252 235 219 218 224 219 218 216 213 210 209 206 206 215 209 209 219 220 216 215 213
216 194 193 192 200 198 207 205 163 134 131 234 315 263 224 237 249 234 239 231 238 242 244 255 251 244 229 229 230 226 223 220 217 209 204 201 207 213 218 214 218 213 210 212
181 178 173 195 201 192 217 170 180 142 133 159 220 266 253 279 254 249 234 232 237 243 245 248 248 253 255 253 236 238 240 231 221 212 211 210 219 222 224 218 217 209 203 209
194 198 176 183 172 184 137 128 89 77 138 240 226 225 255 221 227 248 235 238 252 269 270 273 276 273 264 255 242 235 230 233 229 219 216 217 220 221 219 216 213 208 200 197
163 163 153 173 138 164 166 158 139 167 195 232 185 216 251 240 236 250 293 310 326 346 301 286 283 280 273 262 253 240 234 232 223 225 224 223 226 225 224 222 215 208 202 205
188 168 172 173 185 177 190 185 179 194 198 216 148 222 243 231 257 274 288 303 309 313 322 306 304 298 295 304 297 270 244 239 227 222 223 225 229 230 226 228 222 219 213 212
210 191 177 174 166 166 184 210 118 108 75 193 184 239 264 264 256 132 48 1 350 2 347 340 344 338 329 326 323 307 275 256 236 236 242 226 218 218 216 222 226 228 219 204
154 133 225 164 146 167 192 169 158 148 171 216 196 238 244 159 106 16 58 46 28 12 4 0 4 0 1 4 350 360 27 26 77 135 175 215 213 216 214 200 207 206 196 187
342 283 91 162 205 182 162 187 196 168 197 209 227 195 216 140 118 93 75 75 56 39 14 5 12 17 5 12 26 28 27 67 88 77 113 152 139 158 171 191 183 185 173 181
355 2 174 168 30 289 203 194 198 195 196 225 110 143 124 115 83 92 85 69 62 47 32 19 5 2 3 359 11 36 35 38 26 45 37 33 81 121 158 162 161 154 156 164
344 38 301 136 118 51 203 187 203 197 254 200 200 175 142 131 81 94 29 343 352 355 22 21 8 358 339 333 319 301 284 267 206 170 172 210 216 208 186 175 168 174 173 175
144 39 20 10 50 75 143 66 277 209 214 220 228 236 150 176 265 310 324 307 318 347 341 332 341 344 339 320 299 300 295 294 280 254 231 221 224 222 219 209 203 196 194 186
57 61 88 81 74 41 81 154 90 192 227 229 242 256 267 310 328 332 330 324 319 320 329 352 347 344 339 319 311 272 246 226 219 233 237 242 239 237 238 232 234 229 209 203
360 130 77 13 42 187 272 235 237 229 238 256 273 279 259 308 344 328 327 329 332 334 338 359 4 1 346 342 330 320 292 261 231 241 238 227 220 211 211 209 205 205 209 199
11 91 46 122 355 83 282 233 213 204 202 230 239 276 79 5 347 321 328 335 350 349 342 344 357 359 346 337 332 320 317 296 237 240 249 247 241 235 232 229 216 210 208 202
349 24 28 40 265 211 92 285 304 239 262 228 268 270 324 175 288 300 324 69 9 348 342 340 342 339 336 328 323 325 313 291 270 258 246 232 229 239 232 226 228 226 214 210
221 279 91 215 249 315 284 128 159 194 255 211 236 264 146 19 294 254 124 28 358 337 329 328 331 328 325 325 329 323 315 309 282 262 257 255 234 225 215 220 216 211 213 214
185 230 258 159 228 230 322 285 318 212 264 113 119 91 94 166 297 35 135 346 337 336 327 323 326 325 327 336 333 324 319 315 301 289 272 256 236 232 226 218 210 205 209 214
136 176 224 212 255 281 261 245 325 194 84 129 57 145 182 242 272 344 320 316 323 318 322 326 323 317 317 320 326 321 320 311 315 304 287 266 242 235 234 227 207 199 197 196
178 170 195 169 217 253 193 96 211 225 140 292 332 274 269 251 247 257 283 291 319 318 325 328 320 320 324 320 325 319 311 316 312 303 293 278 252 240 241 223 209 199 192 192
224 209 194 204 212 247 195 249 212 154 233 250 285 268 265 268 264 298 288 296 305 310 315 311 310 312 315 311 325 314 315 314 311 307 292 280 269 254 231 218 216 210 205 205
231 186 227 162 228 237 236 239 246 239 254 276 243 276 252 276 280 280 271 263 273 288 302 308 309 304 305 307 306 297 305 310 310 298 297 292 269 258 235 231 220 215 211 217
214 163 197 253 267 278 262 241 240 250 242 229 226 265 280 292 298 292 290 279 273 283 290 299 305 302 298 306 301 305 311 313 302 302 297 289 277 263 250 238 230 227 227 218
190 213 203 221 206 206 185 154 158 196 211 217 242 260 229 252 283 299 296 300 295 297 293 288 284 283 290 298 301 303 301 302 299 297 290 283 279 267 257 257 252 244 240 236